Location: Saint-Hippolyte
(43.6394°N, 4.7559°E)
Time: 15:30:05
(UTC+00:00)

Cosmos 1302 Rocket - Pass Details

Date: 24 October 2020
Orbit: 756 x 777 km, 74.0° (Epoch: 24 November)

Event Time Altitude Azimuth Distance (km) Brightness Sun altitude
Rises 18:19:37 0° 199° (SSW) 3,219 7.5 -18.1°
Reaches altitude 10° 18:21:58 10° 200° (SSW) 2,300 6.7 -18.6°
Maximum altitude 18:27:12 87° 288° (WNW) 778 4.0 -19.5°
Drops below altitude 10° 18:32:31 10° 20° (NNE) 2,329 6.3 -20.5°
Sets 18:34:55 0° 21° (NNE) 3,263 7.1 -20.9°
